| time (UTC) | temp F | wind direction | speed knots | gust knots | rain 1hr in | rain 24hr in | rain mn in | humidity % | barometer mb |
| 20260508141524 | 49 | 70 | 4.3 | 7.0 | 0.00 | 0.87 | 0.01 | 100 | 1001.8 |
| 20260508140023 | 48 | 74 | 2.6 | 5.2 | 0.00 | 0.87 | 0.01 | 100 | 1002.1 |
| 20260508134513 | 45 | 82 | 4.3 | 8.7 | 0.00 | 0.87 | 0.01 | 100 | 1002.1 |
| 20260508133014 | 46 | 69 | 1.7 | 5.2 | 0.00 | 0.87 | 0.01 | 100 | 1002.3 |
| 20260508131512 | 46 | 83 | 1.7 | 7.0 | 0.00 | 0.87 | 0.01 | 100 | 1002.4 |
| 20260508130009 | 49 | 132 | 1.7 | 3.5 | 0.00 | 0.87 | 0.01 | 100 | 1002.3 |
| 20260508124505 | 48 | 146 | 0.0 | 2.6 | 0.00 | 0.87 | 0.01 | 100 | 1002.1 |
| 20260508123100 | 48 | 146 | 0.9 | 4.3 | 0.00 | 0.87 | 0.01 | 100 | 1001.9 |
| 20260508121555 | 46 | 171 | 0.9 | 3.5 | 0.00 | 0.87 | 0.01 | 100 | 1002.1 |
| 20260508120051 | 44 | 165 | 2.6 | 4.3 | 0.00 | 0.87 | 0.01 | 100 | 1002.5 |
| 20260508114548 | 42 | 149 | 0.0 | 2.6 | 0.00 | 0.87 | 0.01 | 100 | 1002.4 |
| 20260508113049 | 41 | 148 | 3.5 | 5.2 | 0.00 | 0.87 | 0.01 | 100 | 1002.3 |
| 20260508111558 | 41 | 149 | 0.0 | 1.7 | 0.00 | 0.87 | 0.01 | 100 | 1002.3 |
| 20260508110047 | 40 | 148 | 0.0 | 2.6 | 0.00 | 0.87 | 0.01 | 100 | 1002.4 |
| 20260508104547 | 40 | 146 | 1.7 | 6.1 | 0.00 | 0.87 | 0.01 | 100 | 1002.2 |
| 20260508103049 | 40 | 86 | 1.7 | 3.5 | 0.00 | 0.87 | 0.01 | 100 | 1002.2 |
| 20260508101546 | 40 | 76 | 0.9 | 4.3 | 0.00 | 0.87 | 0.01 | 100 | 1002.3 |
| 20260508100038 | 41 | 282 | 1.7 | 3.5 | 0.00 | 0.87 | 0.01 | 100 | 1002.2 |
| 20260508094536 | 41 | 281 | 0.0 | 0.0 | 0.00 | 0.87 | 0.01 | 100 | 1001.8 |
| 20260508093038 | 41 | 281 | 0.0 | 0.0 | 0.00 | 0.87 | 0.01 | 100 | 1001.7 |
| 20260508091535 | 41 | 281 | 0.0 | 0.9 | 0.00 | 0.87 | 0.01 | 100 | 1001.6 |
| 20260508090037 | 42 | 281 | 0.0 | 0.9 | 0.00 | 0.87 | 0.01 | 100 | 1001.3 |
| 20260508084528 | 44 | 281 | 0.9 | 3.5 | 0.00 | 0.87 | 0.01 | 100 | 1001.4 |
| 20260508083029 | 45 | 287 | 0.0 | 1.7 | 0.00 | 0.87 | 0.01 | 100 | 1001.4 |
| 20260508081527 | 45 | 288 | 0.0 | 2.6 | 0.00 | 0.87 | 0.01 | 100 | 1001.4 |
| 20260508080044 | 45 | 288 | 0.0 | 0.0 | 0.00 | 0.87 | 0.01 | 100 | 1001.6 |
| 20260508074523 | 45 | 288 | 0.0 | 0.0 | 0.00 | 0.87 | 0.01 | 100 | 1001.1 |
| 20260508073027 | 45 | 288 | 0.0 | 0.0 | 0.00 | 0.87 | 0.01 | 100 | 1001.7 |
| 20260508071522 | 44 | 288 | 0.0 | 0.0 | 0.00 | 0.87 | 0.01 | 100 | 1001.6 |
| 20260508070023 | 44 | 288 | 0.0 | 0.0 | 0.00 | 0.87 | 0.01 | 100 | 1001.8 |
| 20260508064536 | 44 | 288 | 0.0 | 0.0 | 0.00 | 0.87 | 0.01 | 100 | 1001.7 |
| 20260508063017 | 45 | 288 | 0.0 | 0.0 | 0.00 | 0.87 | 0.01 | 100 | 1001.5 |
| 20260508061518 | 46 | 288 | 0.0 | 0.0 | 0.00 | 0.87 | 0.01 | 100 | 1001.7 |
| 20260508060011 | 46 | 288 | 0.0 | 0.0 | 0.01 | 0.87 | 0.01 | 100 | 1001.3 |
| 20260508054516 | 47 | 288 | 0.0 | 1.7 | 0.01 | 0.87 | 0.01 | 100 | 1001.4 |
| 20260508053009 | 47 | 288 | 0.0 | 1.7 | 0.01 | 0.87 | 0.01 | 100 | 1001.4 |
| 20260508051507 | 48 | 288 | 0.9 | 4.3 | 0.01 | 0.87 | 0.01 | 100 | 1001.4 |
| 20260508050010 | 48 | 288 | 1.7 | 6.1 | 0.00 | 0.86 | 0.00 | 100 | 1001.5 |
| 20260508044503 | 47 | 68 | 0.9 | 2.6 | 0.00 | 0.86 | 0.00 | 100 | 1001.5 |
| 20260508043001 | 47 | 68 | 0.0 | 0.0 | 0.00 | 0.86 | 0.00 | 100 | 1001.4 |
| 20260508041604 | 46 | 68 | 0.0 | 0.0 | 0.00 | 0.86 | 0.00 | 100 | 1001.5 |
| 20260508034557 | 46 | 68 | 0.0 | 0.9 | 0.00 | 0.86 | 0.00 | 100 | 1001.9 |
| 20260508033055 | 47 | 67 | 1.7 | 3.5 | 0.00 | 0.86 | 0.00 | 100 | 1001.8 |
| 20260508031553 | 47 | 67 | 0.0 | 1.7 | 0.00 | 0.86 | 0.00 | 100 | 1001.9 |
| 20260508030054 | 47 | 67 | 0.0 | 2.6 | 0.00 | 0.86 | 0.00 | 100 | 1002.0 |
| 20260508024547 | 48 | 67 | 2.6 | 7.8 | 0.00 | 0.86 | 0.86 | 100 | 1001.9 |
| 20260508023047 | 48 | 273 | 0.9 | 3.5 | 0.00 | 0.86 | 0.86 | 100 | 1002.0 |
| 20260508021544 | 48 | 273 | 0.0 | 0.9 | 0.00 | 0.86 | 0.86 | 100 | 1001.8 |
| 20260508020042 | 49 | 273 | 0.0 | 1.7 | 0.00 | 0.86 | 0.86 | 100 | 1002.0 |
| 20260508014541 | 50 | 273 | 0.0 | 2.6 | 0.00 | 0.86 | 0.86 | 100 | 1002.3 |
| 20260508013041 | 50 | 273 | 0.0 | 0.0 | 0.00 | 0.86 | 0.86 | 100 | 1002.0 |
| 20260508011540 | 50 | 273 | 0.0 | 0.0 | 0.00 | 0.86 | 0.86 | 100 | 1002.1 |
| 20260508010039 | 50 | 273 | 0.0 | 0.0 | 0.00 | 0.86 | 0.86 | 100 | 1001.7 |
| 20260508004547 | 51 | 273 | 0.0 | 1.7 | 0.00 | 0.86 | 0.86 | 100 | 1001.5 |
| 20260508003046 | 50 | 274 | 0.0 | 0.9 | 0.00 | 0.86 | 0.86 | 100 | 1001.6 |
| 20260508001538 | 51 | 274 | 0.0 | 2.6 | 0.00 | 0.86 | 0.86 | 100 | 1001.7 |
| 20260508000038 | 51 | 274 | 0.0 | 1.7 | 0.00 | 0.86 | 0.86 | 100 | 1001.7 |
| 20260507234547 | 51 | 274 | 1.7 | 5.2 | 0.00 | 0.86 | 0.86 | 100 | 1001.6 |
| 20260507233039 | 51 | 275 | 0.9 | 3.5 | 0.00 | 0.86 | 0.86 | 100 | 1001.6 |
| 20260507231535 | 51 | 275 | 1.7 | 6.1 | 0.01 | 0.86 | 0.86 | 100 | 1001.5 |
| 20260507230035 | 51 | 273 | 1.7 | 6.1 | 0.01 | 0.86 | 0.86 | 100 | 1001.3 |
| 20260507224535 | 51 | 269 | 1.7 | 7.0 | 0.02 | 0.86 | 0.86 | 100 | 1001.3 |
| 20260507223041 | 52 | 266 | 3.5 | 7.0 | 0.01 | 0.85 | 0.85 | 100 | 1001.5 |
| 20260507221536 | 52 | 265 | 3.5 | 7.8 | 0.01 | 0.85 | 0.85 | 100 | 1001.5 |
| 20260507220039 | 53 | 283 | 2.6 | 7.8 | 0.01 | 0.85 | 0.85 | 100 | 1001.4 |
| 20260507214532 | 55 | 240 | 6.1 | 9.6 | 0.00 | 0.84 | 0.84 | 100 | 1001.4 |
| 20260507213032 | 56 | 198 | 2.6 | 7.8 | 0.00 | 0.84 | 0.84 | 100 | 1001.3 |
| 20260507211536 | 56 | 187 | 3.5 | 7.0 | 0.00 | 0.84 | 0.84 | 100 | 1001.2 |
| 20260507210031 | 56 | 184 | 4.3 | 7.0 | 0.00 | 0.84 | 0.84 | 100 | 1001.3 |
| 20260507204531 | 56 | 204 | 3.5 | 7.0 | 0.00 | 0.84 | 0.84 | 100 | 1001.0 |
| 20260507203028 | 55 | 180 | 4.3 | 8.7 | 0.01 | 0.84 | 0.84 | 100 | 1000.9 |
| 20260507201528 | 55 | 193 | 2.6 | 7.0 | 0.01 | 0.84 | 0.84 | 100 | 1000.7 |
| 20260507200027 | 54 | 200 | 4.3 | 7.0 | 0.03 | 0.84 | 0.84 | 100 | 1001.1 |
| 20260507194535 | 52 | 161 | 2.6 | 7.0 | 0.08 | 0.84 | 0.84 | 100 | 1000.8 |
| 20260507193028 | 51 | 161 | 1.7 | 8.7 | 0.11 | 0.83 | 0.83 | 100 | 1000.4 |
| 20260507191525 | 51 | 153 | 4.3 | 11.3 | 0.14 | 0.83 | 0.83 | 100 | 1000.2 |
| 20260507190036 | 54 | 143 | 5.2 | 9.6 | 0.15 | 0.81 | 0.81 | 100 | 1001.2 |
| 20260507184526 | 55 | 186 | 4.3 | 10.4 | 0.17 | 0.76 | 0.76 | 100 | 1001.8 |
| 20260507183018 | 55 | 183 | 6.1 | 8.7 | 0.21 | 0.72 | 0.72 | 100 | 1002.6 |
| 20260507181515 | 56 | 183 | 4.3 | 8.7 | 0.28 | 0.68 | 0.68 | 100 | 1002.5 |
| 20260507180018 | 56 | 178 | 5.2 | 8.7 | 0.37 | 0.66 | 0.66 | 100 | 1002.9 |
| 20260507174514 | 56 | 182 | 5.2 | 9.6 | 0.42 | 0.59 | 0.59 | 100 | 1002.9 |
| 20260507173033 | 56 | 196 | 7.8 | 11.3 | 0.48 | 0.50 | 0.50 | 100 | 1003.2 |
| 20260507171511 | 56 | 205 | 9.6 | 15.6 | 0.37 | 0.38 | 0.38 | 100 | 1003.8 |
| 20260507170018 | 56 | 210 | 8.7 | 18.2 | 0.28 | 0.28 | 0.28 | 100 | 1003.4 |
| 20260507164520 | 57 | 202 | 11.3 | 19.1 | 0.16 | 0.16 | 0.16 | 100 | 1003.6 |
| 20260507163009 | 57 | 216 | 12.2 | 20.9 | 0.02 | 0.02 | 0.02 | 100 | 1003.3 |
| 20260507161508 | 57 | 192 | 12.2 | 23.5 | 0.01 | 0.01 | 0.01 | 100 | 1003.1 |
| 20260507160006 | 58 | 184 | 13.0 | 22.6 | 0.00 | 0.00 | 0.00 | 100 | 1003.3 |
| 20260507154505 | 59 | 159 | 11.3 | 25.2 | 0.00 | 0.00 | 0.00 | 100 | 1003.8 |
| 20260507153003 | 59 | 149 | 11.3 | 26.9 | 0.00 | 0.00 | 0.00 | 100 | 1004.2 |
| 20260507151601 | 59 | 174 | 8.7 | 21.7 | 0.00 | 0.00 | 0.00 | 100 | 1004.6 |
| 20260507150101 | 59 | 193 | 8.7 | 24.3 | 0.00 | 0.00 | 0.00 | 100 | 1004.5 |
| 20260507150001 | 59 | 190 | 9.6 | 24.3 | 0.00 | 0.00 | 0.00 | 100 | 1004.6 |
| 20260507144601 | 58 | 180 | 10.4 | 20.9 | 0.00 | 0.00 | 0.00 | 100 | 1005.1 |
| 20260507143114 | 57 | 165 | 13.0 | 23.5 | 0.00 | 0.00 | 0.00 | 100 | 1005.7 |